Regional Weather Roundup
Issued by NWS

Home | Current Version | Previous Version | Graphics & Text | Print | Product List | Glossary On
Versions: 1 2 3 4 5 6 7 8 9 10 11 12 13 14 15 16 17 18 19 20 21 22 23 24 25 26 27 28 29 30 31 32 33 34 35 36 37 38 39 40 41 42 43 44 45 46 47 48 49 50
790
ASUS44 KLIX 310705
RWRLA
LOUISIANA WEATHER ROUNDUP
NATIONAL WEATHER SERVICE NEW ORLEANS LA
200 AM CDT FRI OCT 31 2014

NOTE: "FAIR" INDICATES FEW OR NO CLOUDS BELOW 12,000 FEET WITH NO
      SIGNIFICANT WEATHER AND/OR OBSTRUCTIONS TO VISIBILITY.
      SKY/WX - SKY CONDITION AND SIGNIFICANT WEATHER.
      TMP - AIR TEMPERATURE.    DP   - DEWPOINT TEMPERATURE.
      RH  - RELATIVE HUMIDITY.  PRES - PRESSURE.
      HX  - HEAT INDEX.         WCI  - WIND CHILL INDEX.

*  THESE STATIONS ARE NOT NWS OR FAA STATIONS AND ARE NOT UNDER
   NWS QUALITY CONTROL.

LAZ040-048-061>063-065-066-069-310800-
SOUTHEAST LOUISIANA

CITY           SKY/WX    TMP DP  RH WIND       PRES   REMARKS
N.O. AUDUBON     N/A     59  56  90 MISG        N/A
N.O. INTL ARPT CLEAR     58  49  72 NW3       30.05S
N.O. LAKEFRONT CLEAR     67  48  50 N9        30.05S
N.O. DOWNTOWN* FAIR      63  45  51 CALM      30.05S
SLIDELL        CLEAR     46  43  89 N3        30.04F
BATON ROUGE    CLEAR     50  46  86 CALM      30.07S
BOOTHVILLE     CLEAR     65  50  58 N5        30.03S
BELLE CHASSE   CLEAR     50  47  89 CALM      30.04S
BOGALUSA*        N/A     46  42  88 CALM      30.07S
NEW ROADS*     PTSUNNY   48  47  94 CALM      30.07F
GONZALES*      FAIR      50  50  99 N3        30.06S
HAMMOND*       CLEAR     50  46  87 CALM      30.08S
HOUMA*         CLEAR     56  48  75 NW6       30.05S
PORT FOURCHON* SUNNY     64  52  63 N9        30.07S

$$

LAZ041-044-053-054-310800-
SOUTHWEST LOUISIANA

CITY           SKY/WX    TMP DP  RH WIND       PRES   REMARKS
LAKE CHARLES   CLEAR     52  50  93 CALM      30.08S
LAFAYETTE      CLEAR     53  49  86 N3        30.08S
PATTERSON      CLEAR     52  50  93 CALM      30.08F
SALT POINT       N/A     59  51  75 VRB3      30.06S
NEW IBERIA     CLEAR     50  48  93 CALM      30.07F
CHENAULT AIRPK CLEAR     54  51  89 CALM      30.09S

$$

LAZ027-028-310800-
CENTRAL LOUISIANA

CITY           SKY/WX    TMP DP  RH WIND       PRES   REMARKS
FORT POLK      CLEAR     52  49  91 W1        30.09S
ALEXANDRIA INT CLEAR     51  47  86 CALM      30.07F
ALEXANDRIA     PTCLDY    50  47  89 CALM      30.08F

$$

LAZ001-002-310800-
NORTHWEST LOUISIANA

CITY           SKY/WX    TMP DP  RH WIND       PRES   REMARKS
SHREVEPORT     CLEAR     54  48  80 CALM      30.08S
BARKSDALE AFB  CLEAR     50  48  92 NE1       30.08F
DTN SHREVEPORT CLEAR     55  48  77 W3        30.09S

$$

LAZ014-016-310800-
NORTHEAST LOUISIANA

CITY           SKY/WX    TMP DP  RH WIND       PRES   REMARKS
MONROE         CLEAR     54  49  83 CALM      30.07S
TALLULAH       CLEAR     46  45  96 CALM      30.05F

$$




USA.gov is the U.S. government's official web portal to all federal, state and local government web resources and services.